SL-14 DEB, 45355

Orbit data source: Space-Track

SL-14 DEB, 45355 is space debris in LEO originally from a launch on Thu, 15 Aug 1991 UTC launched from the Plesetsk Missile And Space Complex (PKMTR). Debris objects in space refer to the collection of defunct objects orbiting the Earth. Examples of debris include non-operational satellites, rocket bodies, and fragments generated from explosions, collisions, or faulty payload assembly.

Loading next visibility...
Identifier
45355, 1991-056CP
Orbit
LEO
Country
Flag of CISCIS
Related business
Manufacturer
Unknown
Mission
Spacecraft
Bus & Motor
Unknown
Mass
Unknown
Launch date (UTC)
1991-08-15 (35 years ago)
Launch vehicle
Unknown
Launch site
Plesetsk Missile And Space Complex (PKMTR)
Object type
Payload
Rocket body
Debris
Shape & HBR
Unknown shape, 0.1 m
Radar Cross Section
Medium (>0.1 m² and <1 m²)

Expand to show TLE details & history
Last TLE update: 2 days ago

TLE from 2 days ago
0 SL-14 DEB
1 45355U 91056CP  26166.34693560  .00003048  00000-0  85405-2 0  9999
2 45355  82.6149 191.0623 0056818  35.0026 325.4807 13.11050963301293
Epoch: 2026-06-15T08:19Z
TLE epoch observation values (Epoch: 2026-06-15T08:19:35.235Z)
Latitude
-0.00002°
Longitude
162.53085°
Altitude
1,186.404 km
Speed
7.277 km/s
True Right ascension
12h 44m 14s
True Declination
0° 00' 00"
Sunlit
Object was in daylight at epoch
Visualization orbit readout
Latitude
Unknown
Longitude
Unknown
Altitude
Unknown
Speed
Unknown
Apparent Right ascension
Unknown
Apparent Declination
Unknown
Sunlit
N/A
Visualization observer readout
Local Sidereal Time
20:06:51
Azimuth
Unknown
Elevation
Unknown
Doppler factor
Unknown
Orbital elements
Apogee altitude
1,259.497 km
Perigee altitude
1,173.196 km
Semi-major axis
7,594.484 km
Eccentricity
0.00568
Inclination
82.6149°
RAAN
191.0623°
Arg. of periapsis
35.0026°
True anomaly
325.10957°
Mean anomaly
325.4807°
Eccentric anomaly
325.29535°
Mean motion
3.27941 °/min
Orbital period
109.78 mins
BSTAR
0.0085405
Loading maneuver chart data...
Computing Atmospheric mass density...
Loading historical data...
Loading historical data...
Loading historical data...
Loading historical data...
Loading historical data...
Loading historical data...
Loading historical data...

Documentation

Showing up to 5 results
|